Hourly Data Report for June 19, 2021

OTTAWA INTL A
ONTARIO
Current Station Operator: NAVCAN

45°19'00.000" N
75°40'00.000" W
114.90 m
6106001
71628
YOW

Download Data

Hourly Data (June 2021)
Hourly Data Report for June 19, 2021
TIME
LST
Temp Definition
°C
Dew Point Definition
°C
Rel Hum Definition
%
Precip. Amount Definition
mm

Wind Dir Definition
10's deg

Wind Spd Definition
km/h
Visibility Definition
km
Stn Press Definition
kPa
Hmdx Definition


Wind Chill Definition


Weather Definition


00:00 16.4 15.6 95   20 7 24.1 99.02     LegendNANA
01:00 16.2 15.8 98   20 8 16.1 98.98     Mainly Clear
02:00 16.2 16.0 98   21 11 16.1 98.98     LegendNANA
03:00 16.0 15.7 98   21 11 16.1 98.95     LegendNANA
04:00 15.2 14.9 98   20 10 9.7 98.92     Fog
05:00 15.3 15.1 99   20 9 16.1 98.95     LegendNANA
06:00 16.6 15.8 95   22 7 24.1 99.02     LegendNANA
07:00 19.3 15.0 76   25 18 24.1 99.06     Clear
08:00 20.9 13.9 64   26 22 24.1 99.08     LegendNANA
09:00 22.6 12.8 54   27 25 24.1 99.03 25   LegendNANA
10:00 23.1 12.8 52   27 26 24.1 99.06 26   Mainly Clear
11:00 23.6 12.4 49   28 30 24.1 99.06 26   LegendNANA
12:00 24.4 11.1 43   27 30 24.1 99.08 26   LegendNANA
13:00 24.2 11.8 46   30 26 24.1 99.09 26   Mainly Clear
14:00 25.4 10.9 40   27 33 24.1 99.09 27   LegendNANA
15:00 26.2 11.7 40   29 27 24.1 99.07 28   LegendNANA
16:00 25.9 11.5 40   29 21 24.1 99.03 28   Mainly Clear
17:00 25.8 11.6 40   31 21 24.1 99.03 28   LegendNANA
18:00 25.2 10.5 39   30 21 24.1 99.01 27   LegendNANA
19:00 23.7 11.1 45   31 17 24.1 99.04 26   Clear
20:00 22.2 10.7 47   34 12 24.1 99.09     LegendNANA
21:00 19.1 11.1 59   22 5 24.1 99.19     LegendNANA
22:00 18.6 12.7 68   1 5 24.1 99.25     Mainly Clear
23:00 19.6 12.7 64   35 7 24.1 99.26     LegendNANA

Notes on Data Quality.

Legend

  • E = Estimated
  • M = Missing
  • NA = Not Available*
  • [empty] = Indicates an unobserved value
Date modified: